User: anonymous
Location: Caltech
(34.1382°N, 118.1253°W)
Time: 10:51:58
(UTC-07:00)
Language:

OAO 1 Rocket - Orbit

View from above orbital plane
View from above orbital plane
View from above satellite
View from above satellite

Ground track
Ground track

The orbit data is extracted from the following two-line orbital elements,

1 02144U 66031B   14261.74385769  .00000268  00000-0  86371-4 0  7173
2 02144 035.0434 351.3778 0008114 109.4850 250.6717 14.42162338543281
Epoch (UTC): 18 September 2014 17:51:09
Eccentricity: 0.0008114
inclination: 35.0434°
perigee height: 745 km
apogee height: 757 km
right ascension of ascending node: 351.3778°
argument of perigee: 109.4850°
revolutions per day: 14.42162338
mean anomaly at epoch: 250.6717°
orbit number at epoch: 54328

The dashed part of the orbit path shows where the satellite is in the earth's shadow,  

DLR